Weather History for PHOG - February, 2012

Change the Weather History Date:

Sunday, February 12, 2012

  Actual Average Record
Temperature  
Mean Temperature 73 °F 72 °F  
Max Temperature 84 °F 81 °F 89 °F (1998)
Min Temperature 61 °F 63 °F 52 °F (1995)
Degree Days  
Heating Degree Days 0 0  
Month to date heating degree days 0 0  
Since 1 July heating degree days 0 0  
Cooling Degree Days 8 7  
Month to date cooling degree days 82 84  
Year to date cooling degree days 333 301  
Growing Degree Days 22 (Base 50)    
Moisture  
Dew Point 62 °F    
Average Humidity 65    
Maximum Humidity 78    
Minimum Humidity 51    
Precipitation  
Precipitation 0.00 in 0.06 in 1.17 in (1959)
Month to date precipitation 0.00 0.85  
Year to date precipitation 0.00 3.72  
Snow  
Snow 0.00 in - - ()
Month to date snowfall 0.0  
Since 1 July snowfall 0.0  
Snow Depth 0.00 in    
Sea Level Pressure  
Sea Level Pressure 30.19 in    
Wind  
Wind Speed 10 mph (East)    
Max Wind Speed 24 mph    
Max Gust Speed 35 mph    
Visibility 10 miles    
Events      
T = Trace of Precipitation, MM = Missing Value Source: NWS Daily Summary

Daily Weather History Graph

Daily Weather History Graph

Search for Another Location

Airport or City:

Trip Planner

Search our weather history database for the weather conditions in past years. The results will help you decide how hot, cold, wet, or windy it might be!

Date:

Astronomy

Feb. 12, 2012 Rise Set
Actual Time 6:57 AM HST 6:22 PM HST
Civil Twilight 6:34 AM HST 6:45 PM HST
Nautical Twilight 6:08 AM HST 7:11 PM HST
Astronomical Twilight 5:42 AM HST 7:37 PM HST
Moon 11:35 PM HST (2/12) 10:16 AM HST (2/12)
Length of Visible Light 12h 10m
Length of Day
11h 24m
Waning Gibbous, 70% of the Moon is Illuminated
Feb 12
Waning Gibbous
Feb 14
Last Quarter
Feb 21
New
Feb 29
First Quarter
Mar 7
Full

Hourly Weather History & Observations

Time (HST) Temp. Heat Index Dew Point Humidity Pressure Visibility Wind Dir Wind Speed Gust Speed Precip Events Conditions
12:54 AM 71.1 °F - 62.1 °F 73% 30.23 in 10.0 mi NE 12.7 mph - N/A   Mostly Cloudy
1:54 AM 69.1 °F - 60.1 °F 73% 30.22 in 10.0 mi East 5.8 mph - N/A   Partly Cloudy
2:54 AM 71.1 °F - 63.0 °F 75% 30.20 in 10.0 mi NE 13.8 mph - N/A   Partly Cloudy
3:54 AM 70.0 °F - 62.1 °F 76% 30.20 in 10.0 mi NE 9.2 mph - N/A   Scattered Clouds
4:54 AM 64.0 °F - 57.0 °F 78% 30.19 in 10.0 mi SE 3.5 mph - N/A   Partly Cloudy
5:54 AM 62.1 °F - 55.9 °F 80% 30.20 in 10.0 mi SSE 5.8 mph - N/A   Partly Cloudy
6:54 AM 63.0 °F - 55.9 °F 78% 30.22 in 10.0 mi Calm Calm - N/A   Scattered Clouds
7:54 AM 66.0 °F - 57.9 °F 75% 30.25 in 10.0 mi Calm Calm - N/A   Scattered Clouds
8:54 AM 73.9 °F - 60.1 °F 62% 30.25 in 10.0 mi East 3.5 mph - N/A   Partly Cloudy
9:54 AM 79.0 °F - 61.0 °F 54% 30.25 in 10.0 mi South 10.4 mph - N/A   Partly Cloudy
10:54 AM 80.1 °F 81.2 °F 62.1 °F 54% 30.23 in 10.0 mi East 16.1 mph 27.6 mph N/A   Partly Cloudy
11:54 AM 82.0 °F 83.1 °F 63.0 °F 52% 30.20 in 10.0 mi ENE 19.6 mph 28.8 mph N/A   Scattered Clouds
12:54 PM 81.0 °F 81.9 °F 62.1 °F 52% 30.16 in 10.0 mi ENE 18.4 mph 28.8 mph N/A   Scattered Clouds
1:54 PM 77.0 °F - 64.0 °F 64% 30.12 in 10.0 mi East 13.8 mph 27.6 mph N/A   Scattered Clouds
2:54 PM 81.0 °F 82.2 °F 63.0 °F 54% 30.12 in 10.0 mi ENE 18.4 mph 26.5 mph N/A   Partly Cloudy
3:54 PM 80.1 °F 81.5 °F 63.0 °F 56% 30.13 in 10.0 mi ENE 18.4 mph 29.9 mph N/A   Scattered Clouds
4:54 PM 79.0 °F - 63.0 °F 58% 30.14 in 10.0 mi ENE 17.3 mph 25.3 mph N/A   Scattered Clouds
5:54 PM 75.0 °F - 62.1 °F 64% 30.15 in 10.0 mi East 11.5 mph 20.7 mph N/A   Partly Cloudy
6:54 PM 73.9 °F - 62.1 °F 66% 30.17 in 10.0 mi East 10.4 mph 20.7 mph N/A   Partly Cloudy
7:54 PM 73.0 °F - 63.0 °F 71% 30.20 in 10.0 mi East 15.0 mph 23.0 mph N/A   Clear
8:54 PM 72.0 °F - 64.0 °F 76% 30.21 in 10.0 mi NE 11.5 mph - N/A   Scattered Clouds
9:54 PM 71.1 °F - 64.0 °F 78% 30.21 in 10.0 mi ENE 12.7 mph 19.6 mph N/A   Scattered Clouds
10:54 PM 72.0 °F - 64.0 °F 76% 30.20 in 10.0 mi East 10.4 mph - N/A   Mostly Cloudy
11:54 PM 72.0 °F - 63.0 °F 73% 30.21 in 10.0 mi Variable 3.5 mph - N/A   Scattered Clouds